Location: Marne
(34.0056°N, 117.9064°W)
Time: 15:10:30
(UTC+00:00)

CZ-2D R/B - Pass Details

Date: 18 January 2020
Orbit: 522 x 538 km, 97.4° (Epoch: 27 February)

Event Time Altitude Azimuth Distance (km) Brightness Sun altitude
Rises 02:18:30 0° 153° (SSE) 2,639 6.7 -14.7°
Reaches altitude 10° 02:20:38 10° 147° (SSE) 1,756 5.7 -15.1°
Maximum altitude 02:24:15 44° 75° (ENE) 740 3.5 -15.9°
Drops below altitude 10° 02:27:54 10° 3° (N) 1,776 5.7 -16.6°
Sets 02:30:04 0° 357° (N) 2,672 6.7 -17.0°
